Regional Weather Roundup
Issued by NWS

Home | Current Version | Previous Version | Text Only | Print | Product List | Glossary Off
Versions: 1 2 3 4 5 6 7 8 9 10 11 12 13 14 15 16 17 18 19 20 21 22 23 24 25 26 27 28 29 30 31 32 33 34 35 36 37 38 39 40 41 42 43 44 45 46 47 48 49 50

000
ASUS43 KLMK 162302
RWRKY
KENTUCKY REGIONAL WEATHER ROUNDUP
NATIONAL WEATHER SERVICE LOUISVILLE KY
700 PM EDT TUE SEP 16 2014

NOTE "FAIR" INDICATES FEW OR NO CLOUDS BELOW 12,000 FEET
WITH NO SIGNIFICANT WEATHER AND/OR OBSTRUCTIONS TO VISIBILITY.

KYZ001>023-026-027-061>063-070>075-170000-
WESTERN AND SOUTH CENTRAL KENTUCKY

CITY           SKY/WX    TMP DP  RH WIND       PRES   REMARKS
PADUCAH        SUNNY     69  55  60 NE10      30.09S
HENDERSON      CLOUDY    64  50  59 NE6       30.10S
OWENSBORO      CLOUDY    68  54  60 N7        30.09F
HOPKINSVILLE   SUNNY     69  54  59 N5        30.07F
BOWLING GREEN  MOCLDY    71  55  56 N3        30.06F
GLASGOW        MOCLDY    71  54  55 N3        30.06F
$$

KYZ024-025-028>034-038-045-046-053-170000-
NORTH CENTRAL KENTUCKY

CITY           SKY/WX    TMP DP  RH WIND       PRES   REMARKS
LOUISVILLE/SDF MOCLDY    64  54  69 N13       30.10R
LOUISVILLE/LOU PTCLDY    63  54  72 N10       30.11R
FORT KNOX      CLEAR     63  56  76 N8        30.08S
$$

KYZ035>037-039>044-047>052-055>060-089>105-170000-
NORTHEAST KENTUCKY

CITY           SKY/WX    TMP DP  RH WIND       PRES   REMARKS
LEXINGTON      PTCLDY    63  55  75 NE9       30.09S
COVINGTON      CLOUDY    60  50  69 NW5       30.11F
FRANKFORT      CLEAR     63  53  70 N9        30.09S
$$

KYZ054-064>069-076>088-106>120-170000-
SOUTHEAST KENTUCKY

CITY           SKY/WX    TMP DP  RH WIND       PRES   REMARKS
JACKSON        MOCLDY    61  57  87 CALM      30.08S
LONDON         MOCLDY    67  58  72 N7        30.07S
SOMERSET       NOT AVBL
MIDDLESBORO    CLEAR     70  61  75 CALM      30.04F
MONTICELLO     CLEAR     70  61  73 N6        30.07S
$$



USA.gov is the U.S. government's official web portal to all federal, state and local government web resources and services.